Satellite: NOAA-12
Catalog number: 21263
Epoch time: 06276.76058997
Element set: 0808
Inclination: 098.7399 deg
RA of node: 269.6315 deg
Eccentricity: 0.0013343
Arg of perigee: 129.7967 deg
Mean anomaly: 230.4399 deg
Mean motion: 14.25508259 rev/day
Decay rate: -6.4e-07 rev/day^2
Epoch rev: 79971
Checksum: 363
Satellite: MET-3/5
Catalog number: 21655
Epoch time: 06276.92677286
Element set: 0242
Inclination: 082.5590 deg
RA of node: 183.9769 deg
Eccentricity: 0.0013730
Arg of perigee: 125.2900 deg
Mean anomaly: 234.9509 deg
Mean motion: 13.17007952 rev/day
Decay rate: 5.1e-07 rev/day^2
Epoch rev: 72767
Checksum: 321
Satellite: MET-2/21
Catalog number: 22782
Epoch time: 06276.93933507
Element set: 0632
Inclination: 082.5451 deg
RA of node: 245.1662 deg
Eccentricity: 0.0020925
Arg of perigee: 233.0509 deg
Mean anomaly: 126.8737 deg
Mean motion: 13.83610512 rev/day
Decay rate: 2.7e-07 rev/day^2
Epoch rev: 66108
Checksum: 293
Satellite: OKEAN-4
Catalog number: 23317
Epoch time: 06278.71665038
Element set: 68
Inclination: 082.5423 deg
RA of node: 173.9189 deg
Eccentricity: 0.0023196
Arg of perigee: 014.8607 deg
Mean anomaly: 345.3264 deg
Mean motion: 14.82405629 rev/day
Decay rate: 2.13e-06 rev/day^2
Epoch rev: 64635
Checksum: 310
Satellite: NOAA-14
Catalog number: 23455
Epoch time: 06276.72949375
Element set: 0307
Inclination: 099.0269 deg
RA of node: 336.1006 deg
Eccentricity: 0.0010174
Arg of perigee: 104.7756 deg
Mean anomaly: 255.4597 deg
Mean motion: 14.13667141 rev/day
Decay rate: 5.5e-07 rev/day^2
Epoch rev: 60640
Checksum: 306
Satellite: SICH-1
Catalog number: 23657
Epoch time: 06278.71825935
Element set: 871
Inclination: 082.5290 deg
RA of node: 314.8221 deg
Eccentricity: 0.0024269
Arg of perigee: 003.9058 deg
Mean anomaly: 356.2349 deg
Mean motion: 14.81395653 rev/day
Decay rate: 1.42e-06 rev/day^2
Epoch rev: 59835
Checksum: 322
Satellite: NOAA-15
Catalog number: 25338
Epoch time: 06276.74798839
Element set: 0688
Inclination: 098.5234 deg
RA of node: 275.8307 deg
Eccentricity: 0.0011496
Arg of perigee: 059.5541 deg
Mean anomaly: 300.6767 deg
Mean motion: 14.24605508 rev/day
Decay rate: 1.51e-06 rev/day^2
Epoch rev: 43617
Checksum: 340
Satellite: RESURS
Catalog number: 25394
Epoch time: 06276.76483910
Element set: 0477
Inclination: 098.4814 deg
RA of node: 335.9283 deg
Eccentricity: 0.0000820
Arg of perigee: 189.6494 deg
Mean anomaly: 170.4669 deg
Mean motion: 14.24113213 rev/day
Decay rate: 3.0e-08 rev/day^2
Epoch rev: 42785
Checksum: 313
Satellite: FENGYUN1
Catalog number: 25730
Epoch time: 06278.60905191
Element set: 840
Inclination: 098.6358 deg
RA of node: 267.0272 deg
Eccentricity: 0.0014171
Arg of perigee: 182.9275 deg
Mean anomaly: 177.1807 deg
Mean motion: 14.11815500 rev/day
Decay rate: 3.0e-08 rev/day^2
Epoch rev: 38159
Checksum: 294
Satellite: OKEAN-0
Catalog number: 25860
Epoch time: 06277.61781499
Element set: 0870
Inclination: 097.7337 deg
RA of node: 286.8527 deg
Eccentricity: 0.0001778
Arg of perigee: 091.3164 deg
Mean anomaly: 268.8259 deg
Mean motion: 14.73392625 rev/day
Decay rate: 6.1e-07 rev/day^2
Epoch rev: 38786
Checksum: 356
Satellite: NOAA-16
Catalog number: 26536
Epoch time: 06276.74728107
Element set: 0072
Inclination: 099.0807 deg
RA of node: 244.7093 deg
Eccentricity: 0.0010460
Arg of perigee: 170.8835 deg
Mean anomaly: 189.2506 deg
Mean motion: 14.12374662 rev/day
Decay rate: 3.60e-06 rev/day^2
Epoch rev: 31090
Checksum: 299
Satellite: NOAA-17
Catalog number: 27453
Epoch time: 06276.88573821
Element set: 0092
Inclination: 098.6118 deg
RA of node: 346.9370 deg
Eccentricity: 0.0012657
Arg of perigee: 118.5198 deg
Mean anomaly: 241.7276 deg
Mean motion: 14.23814405 rev/day
Decay rate: 1.38e-06 rev/day^2
Epoch rev: 22224
Checksum: 317
Satellite: NOAA-18
Catalog number: 28654
Epoch time: 06276.84464296
Element set: 0661
Inclination: 098.7953 deg
RA of node: 217.8319 deg
Eccentricity: 0.0013637
Arg of perigee: 276.2213 deg
Mean anomaly: 083.7420 deg
Mean motion: 14.10994757 rev/day
Decay rate: -3.7e-07 rev/day^2
Epoch rev: 07070
Checksum: 333
/EX
SB KEPS @ AMSAT $ORB06278.M
Orbital Elements 06278.MISC
HR AMSAT ORBITAL ELEMENTS FOR MANNED AND MISCELLANEOUS SATELLITES
FROM WA5QGD FORT WORTH,TX October 5, 2006
Send SUBSCRIBE KEPS/UNSUBSCRIBE KEPS to majordomo(a)amsat.org only
BID: ORB06278.M
TO ALL RADIO AMATEURS BT
Satellite: HUBBLE
Catalog number: 20580
Epoch time: 06277.80786798
Element set: 0729
Inclination: 028.4673 deg
RA of node: 055.2622 deg
Eccentricity: 0.0003768
Arg of perigee: 262.2061 deg
Mean anomaly: 097.8100 deg
Mean motion: 15.00102802 rev/day
Decay rate: 4.26e-06 rev/day^2
Epoch rev: 70157
Checksum: 288
Satellite: UARS
Catalog number: 21701
Epoch time: 06278.68782333
Element set: 886
Inclination: 056.9770 deg
RA of node: 335.7851 deg
Eccentricity: 0.0106169
Arg of perigee: 063.4850 deg
Mean anomaly: 297.7045 deg
Mean motion: 15.44822233 rev/day
Decay rate: 5.328e-05 rev/day^2
Epoch rev: 82637
Checksum: 331
Satellite: PO-34
Catalog number: 25520
Epoch time: 06277.83690438
Element set: 577
Inclination: 028.4609 deg
RA of node: 017.5365 deg
Eccentricity: 0.0005136
Arg of perigee: 357.8239 deg
Mean anomaly: 002.2301 deg
Mean motion: 15.16802951 rev/day
Decay rate: 5.80e-06 rev/day^2
Epoch rev: 43871
Checksum: 303
Satellite: ISS
Catalog number: 25544
Epoch time: 06278.76793981
Element set: 805
Inclination: 051.6381 deg
RA of node: 337.7999 deg
Eccentricity: 0.0012821
Arg of perigee: 063.7377 deg
Mean anomaly: 069.8845 deg
Mean motion: 15.76584864 rev/day
Decay rate: 1.6812e-04 rev/day^2
Epoch rev: 45060
Checksum: 358
Satellite: OO-38
Catalog number: 26063
Epoch time: 06278.81650236
Element set: 733
Inclination: 100.1954 deg
RA of node: 229.8033 deg
Eccentricity: 0.0037036
Arg of perigee: 155.2587 deg
Mean anomaly: 205.0385 deg
Mean motion: 14.35779284 rev/day
Decay rate: 2.1e-07 rev/day^2
Epoch rev: 35054
Checksum: 298
Satellite: NO-45
Catalog number: 26932
Epoch time: 06276.94878179
Element set: 0427
Inclination: 067.0532 deg
RA of node: 087.2544 deg
Eccentricity: 0.0006202
Arg of perigee: 233.3929 deg
Mean anomaly: 126.6599 deg
Mean motion: 14.29536144 rev/day
Decay rate: -4.4e-07 rev/day^2
Epoch rev: 26151
Checksum: 324
Satellite: UWE-1
Catalog number: 28892
Epoch time: 06278.72002211
Element set: 568
Inclination: 098.1494 deg
RA of node: 175.0701 deg
Eccentricity: 0.0017172
Arg of perigee: 183.1793 deg
Mean anomaly: 176.9292 deg
Mean motion: 14.59402109 rev/day
Decay rate: 1.37e-06 rev/day^2
Epoch rev: 5009
Checksum: 299
Satellite: CO-58
Catalog number: 28895
Epoch time: 06276.71905975
Element set: 0553
Inclination: 098.1508 deg
RA of node: 173.2224 deg
Eccentricity: 0.0017385
Arg of perigee: 189.9265 deg
Mean anomaly: 170.1603 deg
Mean motion: 14.59452147 rev/day
Decay rate: 3.02e-06 rev/day^2
Epoch rev: 04968
Checksum: 340
Satellite: NCUBE2
Catalog number: 28897
Epoch time: 06276.47911192
Element set: 0130
Inclination: 098.1512 deg
RA of node: 172.9649 deg
Eccentricity: 0.0017078
Arg of perigee: 191.7740 deg
Mean anomaly: 168.3061 deg
Mean motion: 14.59607660 rev/day
Decay rate: 1.34e-06 rev/day^2
Epoch rev: 04192
Checksum: 313
/EX
1
0